Вернуться в каталог

STARLINK-32682

АктивенСвязьVLEO
NORAD 62196·PAYLOAD·🇺🇸 United States

Запущен Dec 4, 2024 с Cape Canaveral Space Force Station

Loading…

Ближайшие Пролёты (ближайшие 24 часа)

TLE

СвежийSource: CelesTrak SupGP

Эпоха: Sep 14, 2026, 21:41 UTC

1 62196C 24229E   26257.90395833  .00040345  00000+0  14616-2 0  2577
2 62196  43.0011 249.4610 0001507 263.9810  43.9639 15.27551675    12

Отслеживайте STARLINK-32682 в реальном времени с AllMySat

Download on the App Store